Location: Newark
(41.8083°N, 72.2500°W)
Time: 02:28:33
(UTC+00:00)

Explorer 7 - Visible Passes

Search period start: 28 November 2021 00:00
Search period end: 08 December 2021 00:00
Orbit: 483 x 675 km, 50.3° (Epoch: 27 November)

Date Brightness Start Highest point End Pass type
(mag) Time Alt. Az. Time Alt. Az. Time Alt. Az.
28 Nov 9.6 11:18:44 10° S 11:22:03 22° SE 11:25:14 10° E visible
29 Nov 8.6 11:22:03 10° SSW 11:25:58 35° SE 11:29:40 10° ENE visible
30 Nov 7.6 11:25:43 10° SW 11:29:55 57° SE 11:33:53 10° ENE visible
01 Dec 9.8 09:51:12 10° S 09:53:52 16° SE 09:56:27 10° E visible
02 Dec 9.0 09:54:06 10° SSW 09:57:44 25° SE 10:01:11 10° E visible
03 Dec 8.1 09:58:38 17° SSW 10:01:38 40° SE 10:05:33 10° ENE visible
04 Dec 7.2 10:03:43 32° SW 10:05:36 63° SE 10:09:42 10° ENE visible
05 Dec 10.1 08:32:09 11° E 08:32:09 11° E 08:32:29 10° E visible
05 Dec 6.8 10:08:27 48° WSW 10:09:37 86° NNW 10:13:46 10° ENE visible
06 Dec 10.0 08:36:39 12° E 08:36:39 12° E 08:37:04 10° ENE visible
06 Dec 6.9 10:12:56 51° WNW 10:13:39 60° NNW 10:17:47 10° NE visible
07 Dec 10.0 08:40:58 12° ENE 08:40:58 12° ENE 08:41:21 10° ENE visible
07 Dec 7.3 10:17:15 42° NW 10:17:46 44° NNW 10:21:46 10° NE visible
